• en France
  • Liste des pays
  • À 7 jours
  • Température de l'eau
  • Carte satellitaire
  • Carte météo
  • Widgets météo
  • user-avatar
    Se connecter

    Météo par heure à Artashat

    Ce jour, 24 Septembre, Lundi

    Heure Température Précipitation Vent Pression Humidité
    00:00 +12°C° 0 mm 1 m/s 604 mmHg 48%
    01:00 +12°C° 0 mm 1 m/s 604 mmHg 51%
    02:00 +11°C° 0 mm 1 m/s 604 mmHg 54%
    03:00 +11°C° 0 mm 1 m/s 604 mmHg 58%
    04:00 +10°C° 0 mm 1 m/s 604 mmHg 60%
    05:00 +10°C° 0 mm 1 m/s 604 mmHg 62%
    06:00 +9°C° 0 mm 1 m/s 604 mmHg 65%
    07:00 +11°C° 0 mm 1 m/s 605 mmHg 57%
    08:00 +14°C° 0 mm 1 m/s 606 mmHg 49%
    09:00 +16°C° 0 mm 1 m/s 607 mmHg 43%
    10:00 +18°C° 0 mm 1 m/s 607 mmHg 38%
    11:00 +19°C° 0 mm 1 m/s 607 mmHg 34%
    12:00 +20°C° 0 mm 1 m/s 607 mmHg 30%
    13:00 +20°C° 0 mm 2 m/s 607 mmHg 28%
    14:00 +20°C° 0 mm 2 m/s 607 mmHg 27%
    15:00 +21°C° 0 mm 2 m/s 607 mmHg 27%
    16:00 +19°C° 0 mm 2 m/s 607 mmHg 29%
    17:00 +19°C° 0 mm 1 m/s 606 mmHg 32%
    18:00 +16°C° 0 mm 1 m/s 606 mmHg 35%
    19:00 +16°C° 0 mm 1 m/s 606 mmHg 38%
    20:00 +15°C° 0 mm 1 m/s 606 mmHg 40%
    21:00 +14°C° 0 mm 1 m/s 606 mmHg 43%
    22:00 +13°C° 0 mm 1 m/s 605 mmHg 45%
    23:00 +13°C° 0 mm 1 m/s 605 mmHg 46%

    Demain, 25 Septembre, Mardi

    Heure Température Précipitation Vent Pression Humidité
    00:00 +12°C° 0 mm 1 m/s 605 mmHg 48%
    01:00 +12°C° 0 mm 1 m/s 605 mmHg 49%
    02:00 +11°C° 0 mm 1 m/s 604 mmHg 50%
    03:00 +11°C° 0 mm 1 m/s 604 mmHg 51%
    04:00 +11°C° 0 mm 1 m/s 604 mmHg 52%
    05:00 +10°C° 0 mm 1 m/s 603 mmHg 53%
    06:00 +9°C° 0 mm 0 m/s 603 mmHg 53%
    07:00 +12°C° 0 mm 1 m/s 604 mmHg 46%
    08:00 +15°C° 0 mm 1 m/s 605 mmHg 39%
    09:00 +18°C° 0 mm 1 m/s 606 mmHg 32%
    10:00 +20°C° 0 mm 1 m/s 606 mmHg 29%
    11:00 +21°C° 0 mm 1 m/s 606 mmHg 26%
    12:00 +21°C° 0 mm 2 m/s 606 mmHg 23%
    13:00 +23°C° 0 mm 2 m/s 606 mmHg 23%
    14:00 +23°C° 0 mm 2 m/s 606 mmHg 22%
    15:00 +24°C° 0 mm 2 m/s 606 mmHg 21%
    16:00 +21°C° 0 mm 2 m/s 605 mmHg 24%
    17:00 +20°C° 0 mm 1 m/s 604 mmHg 27%
    18:00 +18°C° 0 mm 1 m/s 603 mmHg 30%
    19:00 +18°C° 0 mm 1 m/s 603 mmHg 33%
    20:00 +16°C° 0 mm 1 m/s 604 mmHg 35%
    21:00 +15°C° 0 mm 1 m/s 604 mmHg 38%
    22:00 +15°C° 0 mm 1 m/s 603 mmHg 40%
    23:00 +14°C° 0 mm 1 m/s 603 mmHg 42%

    Après-demain, 26 Septembre, Mercredi

    Heure Température Précipitation Vent Pression Humidité
    00:00 +14°C° 0 mm 1 m/s 603 mmHg 44%
    01:00 +13°C° 0 mm 1 m/s 603 mmHg 46%
    02:00 +12°C° 0 mm 1 m/s 603 mmHg 49%
    03:00 +12°C° 0 mm 1 m/s 602 mmHg 51%
    04:00 +12°C° 0 mm 1 m/s 602 mmHg 53%
    05:00 +11°C° 0 mm 1 m/s 602 mmHg 55%
    06:00 +10°C° 0 mm 2 m/s 602 mmHg 58%
    07:00 +13°C° 0 mm 2 m/s 603 mmHg 51%
    08:00 +15°C° 0 mm 2 m/s 604 mmHg 45%
    09:00 +17°C° 0 mm 2 m/s 605 mmHg 39%
    10:00 +18°C° 0 mm 2 m/s 605 mmHg 35%
    11:00 +19°C° 0 mm 2 m/s 605 mmHg 32%
    12:00 +20°C° 0 mm 2 m/s 605 mmHg 28%
    13:00 +20°C° 0 mm 2 m/s 605 mmHg 27%
    14:00 +21°C° 0 mm 2 m/s 605 mmHg 26%
    15:00 +21°C° 0 mm 2 m/s 605 mmHg 24%
    16:00 +20°C° 0 mm 2 m/s 604 mmHg 27%
    17:00 +19°C° 0 mm 2 m/s 604 mmHg 30%
    18:00 +17°C° 0 mm 2 m/s 604 mmHg 34%
    19:00 +16°C° 0 mm 2 m/s 604 mmHg 37%
    20:00 +15°C° 0 mm 2 m/s 604 mmHg 41%
    21:00 +14°C° 0 mm 2 m/s 604 mmHg 45%
    22:00 +14°C° 0 mm 2 m/s 604 mmHg 48%
    23:00 +13°C° 0 mm 2 m/s 604 mmHg 51%

    27 Septembre, Jeudi

    Heure Température Précipitation Vent Pression Humidité
    00:00 +13°C° 0 mm 1 m/s 604 mmHg 54%
    01:00 +12°C° 0 mm 1 m/s 604 mmHg 57%
    02:00 +12°C° 0 mm 1 m/s 604 mmHg 60%
    03:00 +11°C° 0 mm 1 m/s 604 mmHg 63%
    04:00 +11°C° 0 mm 1 m/s 604 mmHg 65%
    05:00 +10°C° 0 mm 1 m/s 604 mmHg 67%
    06:00 +10°C° 0 mm 1 m/s 604 mmHg 69%
    07:00 +12°C° 0 mm 1 m/s 605 mmHg 62%
    08:00 +14°C° 0 mm 1 m/s 606 mmHg 54%
    09:00 +15°C° 0 mm 2 m/s 607 mmHg 47%
    10:00 +17°C° 0 mm 2 m/s 607 mmHg 43%
    11:00 +18°C° 0 mm 2 m/s 607 mmHg 39%
    12:00 +19°C° 0 mm 2 m/s 608 mmHg 35%
    13:00 +20°C° 0 mm 2 m/s 608 mmHg 33%
    14:00 +20°C° 0 mm 2 m/s 607 mmHg 31%
    15:00 +21°C° 0 mm 2 m/s 607 mmHg 29%
    16:00 +19°C° 0 mm 2 m/s 607 mmHg 33%
    17:00 +18°C° 0 mm 2 m/s 607 mmHg 37%
    18:00 +18°C° 0 mm 1 m/s 606 mmHg 41%
    19:00 +16°C° 0 mm 1 m/s 606 mmHg 46%
    20:00 +15°C° 0 mm 1 m/s 607 mmHg 51%
    21:00 +15°C° 0 mm 1 m/s 607 mmHg 56%
    22:00 +14°C° 0 mm 1 m/s 607 mmHg 58%
    23:00 +13°C° 0 mm 1 m/s 606 mmHg 61%

    28 Septembre, Vendredi

    Heure Température Précipitation Vent Pression Humidité
    00:00 +13°C° 0 mm 1 m/s 606 mmHg 64%
    01:00 +12°C° 0 mm 1 m/s 606 mmHg 65%
    02:00 +12°C° 0 mm 1 m/s 606 mmHg 66%
    03:00 +11°C° 0 mm 1 m/s 606 mmHg 67%
    04:00 +11°C° 0 mm 1 m/s 606 mmHg 67%
    05:00 +10°C° 0 mm 1 m/s 606 mmHg 68%
    06:00 +9°C° 0 mm 0 m/s 605 mmHg 68%
    07:00 +12°C° 0 mm 1 m/s 606 mmHg 59%
    08:00 +15°C° 0 mm 1 m/s 607 mmHg 50%
    09:00 +18°C° 0 mm 1 m/s 608 mmHg 41%
    10:00 +19°C° 0 mm 1 m/s 609 mmHg 37%
    11:00 +19°C° 0 mm 2 m/s 609 mmHg 33%
    12:00 +21°C° 0 mm 2 m/s 609 mmHg 29%
    13:00 +21°C° 0 mm 2 m/s 609 mmHg 28%
    14:00 +23°C° 0 mm 2 m/s 609 mmHg 26%
    15:00 +22°C° 0 mm 3 m/s 608 mmHg 25%
    16:00 +20°C° 0 mm 2 m/s 608 mmHg 29%
    17:00 +19°C° 0 mm 2 m/s 607 mmHg 32%
    18:00 +18°C° 0 mm 1 m/s 607 mmHg 36%
    19:00 +18°C° 0 mm 1 m/s 607 mmHg 39%
    20:00 +16°C° 0 mm 1 m/s 607 mmHg 43%
    21:00 +15°C° 0 mm 1 m/s 607 mmHg 46%
    22:00 +15°C° 0 mm 1 m/s 606 mmHg 46%
    23:00 +14°C° 0 mm 1 m/s 606 mmHg 47%

    29 Septembre, Samedi

    Heure Température Précipitation Vent Pression Humidité
    00:00 +13°C° 0 mm 1 m/s 606 mmHg 47%
    01:00 +13°C° 0 mm 1 m/s 605 mmHg 46%
    02:00 +12°C° 0 mm 1 m/s 605 mmHg 45%
    03:00 +12°C° 0 mm 1 m/s 605 mmHg 44%
    04:00 +12°C° 0 mm 1 m/s 605 mmHg 44%
    05:00 +11°C° 0 mm 1 m/s 604 mmHg 43%
    06:00 +11°C° 0 mm 1 m/s 604 mmHg 42%
    07:00 +14°C° 0 mm 1 m/s 605 mmHg 37%
    08:00 +16°C° 0 mm 1 m/s 606 mmHg 31%
    09:00 +19°C° 0 mm 2 m/s 608 mmHg 25%
    10:00 +20°C° 0 mm 2 m/s 608 mmHg 23%
    11:00 +22°C° 0 mm 3 m/s 608 mmHg 20%
    12:00 +24°C° 0 mm 3 m/s 608 mmHg 17%
    13:00 +25°C° 0 mm 3 m/s 608 mmHg 17%
    14:00 +25°C° 0 mm 4 m/s 607 mmHg 16%
    15:00 +25°C° 0 mm 4 m/s 607 mmHg 16%
    16:00 +24°C° 0 mm 3 m/s 607 mmHg 19%
    17:00 +21°C° 0 mm 3 m/s 606 mmHg 22%
    18:00 +19°C° 0 mm 2 m/s 606 mmHg 25%
    19:00 +19°C° 0 mm 2 m/s 606 mmHg 27%
    20:00 +18°C° 0 mm 2 m/s 606 mmHg 29%
    21:00 +17°C° 0 mm 2 m/s 606 mmHg 31%
    22:00 +17°C° 0 mm 2 m/s 605 mmHg 32%
    23:00 +16°C° 0 mm 1 m/s 605 mmHg 34%
    Voir plus